Regional Weather Roundup
Issued by NWS

Home | Current Version | Previous Version | Text Only | Print | Product List | Glossary Off
Versions: 1 2 3 4 5 6 7 8 9 10 11 12 13 14 15 16 17 18 19 20 21 22 23 24 25 26 27 28 29 30 31 32 33 34 35 36 37 38 39 40 41 42 43 44 45 46 47 48 49 50

000
ASUS43 KFSD 050302
RWRSD

WEATHER ROUNDUP FOR SOUTH DAKOTA
NATIONAL WEATHER SERVICE SIOUX FALLS SD
900 PM CST SUN DEC 04 2016

NOTE: "FAIR" INDICATES FEW OR NO CLOUDS BELOW 12,000 FEET WITH NO
SIGNIFICANT WEATHER AND/OR OBSTRUCTIONS TO VISIBILITY.


SDZ001>005-009-010-012>017-050400-
NORTHWEST AND NORTH CENTRAL SOUTH DAKOTA

CITY           SKY/WX    TMP DP  RH WIND       PRES   REMARKS
BUFFALO          N/A     32  23  69 S7        29.49F WCI  26
FAITH            N/A     30  23  75 SE13      29.59F WCI  20
MOBRIDGE       CLOUDY    29  23  78 SE9       29.62F WCI  20
$$

SDZ012>016-024>037-041>051-057-063-072>074-050400-
SOUTHWEST AND SOUTH CENTRAL SOUTH DAKOTA

CITY           SKY/WX    TMP DP  RH WIND       PRES   REMARKS
RAPID CTY ARPT CLOUDY    35  18  49 S5        29.58F
PIERRE         CLEAR     27  22  81 SE6       29.66F WCI  20
CUSTER         CLOUDY    36  17  46 SW12G20   29.59F
ELLSWORTH AFB  CLOUDY    38  19  45 S10       29.56F
PHILIP         PTCLDY    36  22  56 VRB3      29.63F
PINE RIDGE     MOCLDY    38  24  57 S9        29.63F
SPEARFISH      FAIR      36  21  55 NE3       29.55F
WINNER         MOCLDY    36  26  67 SE10      29.70F
$$

SDZ004>011-016>023-039-040-050400-
NORTHEAST SOUTH DAKOTA

CITY           SKY/WX    TMP DP  RH WIND       PRES   REMARKS
ABERDEEN       CLEAR     23  21  92 S7        29.72F WCI  15
WATERTOWN      CLEAR     26  25  96 SW9       29.73S WCI  17
SISSETON         N/A     33  26  75 W13       29.70S WCI  24
$$

SDZ017-020-022-023-036>040-048>070-050400-
SOUTHEAST SOUTH DAKOTA

CITY           SKY/WX    TMP DP  RH WIND       PRES   REMARKS
SIOUX FALLS    PTCLDY    32  29  88 SW6       29.78F WCI  26
HURON          CLEAR     28  26  92 S7        29.73F WCI  21
MITCHELL       CLOUDY    32  28  85 S7        29.76F WCI  26
YANKTON        CLOUDY    32  25  74 S5        29.80S WCI  27
$$

ABBREVIATIONS USED IN REMARKS
   TC - TEMPERATURE IN CELSIUS
  WCI - WIND CHILL INDEX
   HX - HEAT INDEX
  VSB - VISIBILITY




USA.gov is the U.S. government's official web portal to all federal, state and local government web resources and services.